College Park, MD

8:02 AM EDT on April 19, 2018 (GMT -0400)
College Park

Weather History for KCGS - July, 2013

Change the Weather History Date:

Wednesday, July 24, 2013

  Actual Average Record
Temperature  
Mean Temperature 78 °F -  
Max Temperature 85 °F 88 °F 103 °F (1991)
Min Temperature 70 °F 67 °F 55 °F (1985)
Cooling Degree Days 12    
Growing Degree Days 28 (Base 50)    
Moisture  
Dew Point 67 °F    
Average Humidity 71    
Maximum Humidity 95    
Minimum Humidity 54    
Precipitation  
Precipitation 0.00 in - - ()
Sea Level Pressure  
Sea Level Pressure 29.78 in    
Wind  
Wind Speed 3 mph (NNW)    
Max Wind Speed 10 mph    
Max Gust Speed -    
Visibility 10 miles    
Events      
Averages and records for this station are not official NWS values.
T = Trace of Precipitation, MM = Missing Value Source: NWS Daily Summary

Daily Weather History Graph

Daily Weather History Graph

Search for Another Location

Airport or City:

Astronomy

Jul. 24, 2013 Rise Set
Actual Time 6:01 AM EDT 8:26 PM EDT
Civil Twilight 5:31 AM EDT 8:56 PM EDT
Nautical Twilight 4:53 AM EDT 9:34 PM EDT
Astronomical Twilight 4:12 AM EDT 10:15 PM EDT
Moon 9:32 PM EDT (7/24) 8:17 AM EDT (7/24)
Length of Visible Light 15h 25m
Length of Day
14h 24m
Waning Gibbous, 95% of the Moon is Illuminated
Jul 24
Waning Gibbous
Jul 29
Last Quarter
Aug 6
New
Aug 14
First Quarter
Aug 20
Full

Hourly Weather History & Observations

Time (EDT) Temp. Heat Index Dew Point Humidity Pressure Visibility Wind Dir Wind Speed Gust Speed Precip Events Conditions
12:05 AM 73.6 °F - 71.6 °F 93% 29.71 in 10.0 mi Calm Calm - N/A   Clear
12:25 AM 73.9 °F - 71.4 °F 92% 29.71 in 10.0 mi Calm Calm - N/A   Clear
12:45 AM 73.4 °F - 71.6 °F 94% 29.71 in 7.0 mi Calm Calm - N/A   Clear
1:05 AM 73.4 °F - 71.8 °F 95% 29.71 in 7.0 mi Calm Calm - N/A   Clear
1:25 AM 73.4 °F - 71.8 °F 95% 29.70 in 7.0 mi Calm Calm - N/A   Clear
1:45 AM 73.4 °F - 71.8 °F 95% 29.69 in 7.0 mi Calm Calm - N/A   Clear
2:05 AM 73.6 °F - 72.0 °F 95% 29.69 in 10.0 mi Calm Calm - N/A   Clear
2:25 AM 74.3 °F - 72.0 °F 92% 29.68 in 10.0 mi Calm Calm - N/A   Clear
2:45 AM 75.2 °F - 71.4 °F 88% 29.69 in 10.0 mi Calm Calm - N/A   Clear
3:05 AM 78.1 °F - 70.2 °F 77% 29.70 in 10.0 mi Calm Calm - N/A   Clear
3:25 AM 78.8 °F - 68.4 °F 70% 29.69 in 10.0 mi West 4.6 mph - N/A   Scattered Clouds
3:45 AM 78.1 °F - 68.0 °F 71% 29.69 in 10.0 mi Calm Calm - N/A   Scattered Clouds
4:05 AM 75.2 °F - 69.8 °F 83% 29.69 in 10.0 mi Calm Calm - N/A   Clear
4:25 AM 72.9 °F - 70.0 °F 91% 29.68 in 10.0 mi Calm Calm - N/A   Clear
4:40 AM 72.7 °F - 70.2 °F 92% 29.69 in 10.0 mi Calm Calm - N/A   Clear
5:05 AM 71.8 °F - 69.8 °F 93% 29.69 in 10.0 mi Calm Calm - N/A   Clear
5:25 AM 71.4 °F - 69.3 °F 93% 29.70 in 10.0 mi Calm Calm - N/A   Clear
5:45 AM 70.5 °F - 69.1 °F 95% 29.69 in 10.0 mi Calm Calm - N/A   Clear
6:05 AM 71.8 °F - 69.3 °F 92% 29.71 in 10.0 mi Calm Calm - N/A   Clear
6:25 AM 70.7 °F - 69.3 °F 95% 29.71 in 10.0 mi Calm Calm - N/A   Clear
6:45 AM 72.5 °F - 69.4 °F 90% 29.72 in 10.0 mi Calm Calm - N/A   Clear
7:05 AM 75.0 °F - 68.0 °F 79% 29.73 in 10.0 mi Calm Calm - N/A   Clear
7:25 AM 77.4 °F - 66.4 °F 69% 29.74 in 10.0 mi West 5.8 mph - N/A   Clear
7:45 AM 77.9 °F - 67.3 °F 70% 29.74 in 10.0 mi NW 3.5 mph - N/A   Clear
8:05 AM 78.6 °F - 67.3 °F 68% 29.76 in 10.0 mi NW 5.8 mph - N/A   Mostly Cloudy
8:25 AM 78.3 °F - 67.1 °F 68% 29.75 in 10.0 mi NNW 5.8 mph - N/A   Mostly Cloudy
8:45 AM 78.4 °F - 66.9 °F 68% 29.76 in 10.0 mi NW 4.6 mph - N/A   Mostly Cloudy
9:05 AM 78.4 °F - 67.3 °F 68% 29.77 in 10.0 mi NW 6.9 mph - N/A   Scattered Clouds
9:25 AM 78.8 °F - 67.5 °F 68% 29.77 in 10.0 mi NW 6.9 mph - N/A   Scattered Clouds
9:45 AM 79.5 °F - 67.8 °F 67% 29.77 in 10.0 mi NW 5.8 mph - N/A   Scattered Clouds
10:05 AM 78.3 °F - 67.5 °F 69% 29.79 in 10.0 mi WNW 6.9 mph - N/A   Mostly Cloudy
10:25 AM 77.9 °F - 67.3 °F 70% 29.80 in 10.0 mi NW 8.1 mph - N/A   Overcast
10:45 AM 78.4 °F - 68.2 °F 71% 29.81 in 10.0 mi NNW 6.9 mph - N/A   Mostly Cloudy
11:05 AM 79.0 °F - 68.0 °F 69% 29.81 in 10.0 mi WNW 8.1 mph - N/A   Mostly Cloudy
11:25 AM 79.7 °F - 68.2 °F 68% 29.81 in 10.0 mi NNW 6.9 mph - N/A   Overcast
11:45 AM 80.6 °F 83.5 °F 68.7 °F 67% 29.81 in 10.0 mi NW 5.8 mph - N/A   Scattered Clouds
12:05 PM 79.9 °F - 68.4 °F 68% 29.82 in 10.0 mi NW 5.8 mph - N/A   Scattered Clouds
12:25 PM 79.9 °F - 67.8 °F 66% 29.82 in 10.0 mi NNW 6.9 mph - N/A   Clear
12:45 PM 80.8 °F 83.6 °F 68.5 °F 66% 29.81 in 10.0 mi NNE 5.8 mph - N/A   Clear
1:05 PM 81.0 °F 83.9 °F 68.5 °F 66% 29.81 in 10.0 mi North 4.6 mph - N/A   Clear
1:25 PM 81.9 °F 84.8 °F 68.4 °F 63% 29.81 in 10.0 mi NNW 6.9 mph - N/A   Scattered Clouds
1:45 PM 81.5 °F 84.4 °F 68.4 °F 64% 29.81 in 10.0 mi NNW 4.6 mph - N/A   Scattered Clouds
2:05 PM 81.3 °F 84.3 °F 68.4 °F 65% 29.81 in 10.0 mi NNW 5.8 mph - N/A   Scattered Clouds
2:25 PM 81.7 °F 84.9 °F 68.9 °F 65% 29.81 in 10.0 mi NNW 6.9 mph - N/A   Mostly Cloudy
2:45 PM 82.8 °F 86.0 °F 68.5 °F 62% 29.81 in 10.0 mi NNW 4.6 mph - N/A   Overcast
3:05 PM 83.8 °F 87.3 °F 68.7 °F 60% 29.80 in 10.0 mi North 5.8 mph - N/A   Scattered Clouds
3:25 PM 83.8 °F 87.0 °F 68.2 °F 59% 29.80 in 10.0 mi NW 3.5 mph - N/A   Scattered Clouds
3:45 PM 85.1 °F 87.9 °F 67.5 °F 55% 29.79 in 10.0 mi NW 8.1 mph - N/A   Scattered Clouds
4:05 PM 84.7 °F 87.9 °F 67.8 °F 57% 29.80 in 10.0 mi WNW 5.8 mph - N/A   Mostly Cloudy
4:25 PM 83.5 °F 86.4 °F 67.8 °F 59% 29.80 in 10.0 mi North 6.9 mph - N/A   Mostly Cloudy
4:45 PM 85.1 °F 88.2 °F 68.0 °F 56% 29.80 in 10.0 mi North 9.2 mph - N/A   Scattered Clouds
5:10 PM 85.1 °F 87.9 °F 67.5 °F 55% 29.80 in 10.0 mi NW 8.1 mph - N/A   Clear
5:30 PM 84.4 °F 87.1 °F 67.1 °F 56% 29.80 in 10.0 mi North 4.6 mph - N/A   Scattered Clouds
5:50 PM 83.3 °F 85.7 °F 66.4 °F 57% 29.80 in 10.0 mi North 6.9 mph - N/A   Scattered Clouds
6:10 PM 83.7 °F 85.8 °F 65.8 °F 55% 29.81 in 10.0 mi North 6.9 mph - N/A   Mostly Cloudy
6:30 PM 83.3 °F 85.7 °F 66.6 °F 57% 29.81 in 10.0 mi NNW 6.9 mph - N/A   Mostly Cloudy
6:50 PM 81.7 °F 83.5 °F 65.3 °F 57% 29.82 in 10.0 mi NNW 5.8 mph - N/A   Scattered Clouds
7:10 PM 82.4 °F 83.9 °F 64.0 °F 54% 29.82 in 10.0 mi NNW 10.4 mph - N/A   Scattered Clouds
7:30 PM 81.5 °F 82.9 °F 64.0 °F 55% 29.83 in 10.0 mi NW 9.2 mph - N/A   Scattered Clouds
7:50 PM 80.6 °F 81.9 °F 63.1 °F 55% 29.83 in 10.0 mi NNW 6.9 mph - N/A   Clear
8:10 PM 79.7 °F - 63.9 °F 58% 29.85 in 10.0 mi NNE 4.6 mph - N/A   Clear
8:30 PM 78.8 °F - 63.3 °F 59% 29.86 in 10.0 mi North 4.6 mph - N/A   Scattered Clouds
8:50 PM 77.9 °F - 63.0 °F 60% 29.86 in 10.0 mi NNW 4.6 mph - N/A   Mostly Cloudy
9:10 PM 77.9 °F - 62.2 °F 58% 29.88 in 10.0 mi North 4.6 mph - N/A   Overcast
9:30 PM 77.2 °F - 62.6 °F 61% 29.89 in 10.0 mi North 3.5 mph - N/A   Scattered Clouds
9:50 PM 76.5 °F - 62.8 °F 62% 29.90 in 10.0 mi North 3.5 mph - N/A   Scattered Clouds
10:10 PM 76.3 °F - 62.2 °F 62% 29.90 in 10.0 mi NNE 4.6 mph - N/A   Mostly Cloudy
10:30 PM 76.1 °F - 61.9 °F 61% 29.90 in 10.0 mi NNE 3.5 mph - N/A   Scattered Clouds
10:50 PM 75.4 °F - 62.1 °F 63% 29.91 in 10.0 mi Calm Calm - N/A   Clear
11:10 PM 75.2 °F - 61.3 °F 62% 29.91 in 10.0 mi NNE 4.6 mph - N/A   Clear
11:30 PM 74.8 °F - 61.0 °F 62% 29.91 in 10.0 mi North 4.6 mph - N/A   Clear
11:50 PM 74.3 °F - 60.8 °F 63% 29.91 in 10.0 mi NNE 5.8 mph - N/A   Clear